User: anonymous   Login
Location: Esp�n
(42.4593°N, 0.2047°W)
Time: 23:23:01
(UTC+00:00)
Language:

Cosmos 1356 Rocket - Orbit

View from above orbital plane
View from above orbital plane
View from above satellite
View from above satellite

Ground track
Ground track

The orbit data is extracted from the following two-line orbital elements,

1 13154U 82039B   21127.78657683  .00000271  00000-0  20291-4 0  9997
2 13154  81.1845  65.8885 0039784 346.6422  13.3740 14.98895088116502
Epoch (UTC): 07 May 2021 18:52:40
Eccentricity: 0.0039784
inclination: 81.1845°
perigee height: 542 km
apogee height: 598 km
right ascension of ascending node: 65.8885°
argument of perigee: 346.6422°
revolutions per day: 14.98895088
mean anomaly at epoch: 13.3740°
orbit number at epoch: 11650

The dashed part of the orbit path shows where the satellite is in the earth's shadow,  

DLR